Year,Month,Day,Hour,Minute,Value (Times are PST for barometer in hPa)
2022,12,27,00,00,974.70
2022,12,27,00,01,974.64
2022,12,27,00,02,974.64
2022,12,27,00,03,974.75
2022,12,27,00,04,974.87
2022,12,27,00,05,974.91
2022,12,27,00,06,974.91
2022,12,27,00,07,974.77
2022,12,27,00,08,974.74
2022,12,27,00,09,974.74
2022,12,27,00,10,974.70
2022,12,27,00,11,974.60
2022,12,27,00,12,974.57
2022,12,27,00,13,974.57
2022,12,27,00,14,974.60
2022,12,27,00,15,974.57
2022,12,27,00,16,974.64
2022,12,27,00,17,974.57
2022,12,27,00,18,974.60
2022,12,27,00,19,974.47
2022,12,27,00,20,974.43
2022,12,27,00,21,974.44
2022,12,27,00,22,974.57
2022,12,27,00,23,974.50
2022,12,27,00,24,974.43
2022,12,27,00,25,974.37
2022,12,27,00,26,974.37
2022,12,27,00,27,974.43
2022,12,27,00,28,974.50
2022,12,27,00,29,974.47
2022,12,27,00,30,974.37
2022,12,27,00,31,974.33
2022,12,27,00,32,974.40
2022,12,27,00,33,974.44
2022,12,27,00,34,974.57
2022,12,27,00,35,974.57
2022,12,27,00,36,974.49
2022,12,27,00,37,974.33
2022,12,27,00,38,974.13
2022,12,27,00,39,973.96
2022,12,27,00,40,973.89
2022,12,27,00,41,973.93
2022,12,27,00,42,974.03
2022,12,27,00,43,974.10
2022,12,27,00,44,974.16
2022,12,27,00,45,974.13
2022,12,27,00,46,974.10
2022,12,27,00,47,974.09
2022,12,27,00,48,973.99
2022,12,27,00,49,973.93
2022,12,27,00,50,973.86
2022,12,27,00,51,973.79
2022,12,27,00,52,973.79
2022,12,27,00,53,973.78
2022,12,27,00,54,973.62
2022,12,27,00,55,973.59
2022,12,27,00,56,973.49
2022,12,27,00,57,973.45
2022,12,27,00,58,973.49
2022,12,27,00,59,973.55
2022,12,27,01,00,973.55
2022,12,27,01,01,973.62
2022,12,27,01,02,973.62
2022,12,27,01,03,973.65
2022,12,27,01,04,973.55
2022,12,27,01,05,973.49
2022,12,27,01,06,973.45
2022,12,27,01,07,973.42
2022,12,27,01,08,973.42
2022,12,27,01,09,973.38
2022,12,27,01,10,973.45
2022,12,27,01,11,973.45
2022,12,27,01,12,973.45
2022,12,27,01,13,973.42
2022,12,27,01,14,973.35
2022,12,27,01,15,973.25
2022,12,27,01,16,973.18
2022,12,27,01,17,973.11
2022,12,27,01,18,973.11
2022,12,27,01,19,973.18
2022,12,27,01,20,973.28
2022,12,27,01,21,973.35
2022,12,27,01,22,973.35
2022,12,27,01,23,973.35
2022,12,27,01,24,973.24
2022,12,27,01,25,973.15
2022,12,27,01,26,973.08
2022,12,27,01,27,973.11
2022,12,27,01,28,973.11
2022,12,27,01,29,973.15
2022,12,27,01,30,973.15
2022,12,27,01,31,973.11
2022,12,27,01,32,973.08
2022,12,27,01,33,973.01
2022,12,27,01,34,973.05
2022,12,27,01,35,972.94
2022,12,27,01,36,972.94
2022,12,27,01,37,972.91
2022,12,27,01,38,972.98
2022,12,27,01,39,973.01
2022,12,27,01,40,972.98
2022,12,27,01,41,973.05
2022,12,27,01,42,973.01
2022,12,27,01,43,973.05
2022,12,27,01,44,973.08
2022,12,27,01,45,973.05
2022,12,27,01,46,973.01
2022,12,27,01,47,972.98
2022,12,27,01,48,972.91
2022,12,27,01,49,972.88
2022,12,27,01,50,972.84
2022,12,27,01,51,972.81
2022,12,27,01,52,972.88
2022,12,27,01,53,972.88
2022,12,27,01,54,972.84
2022,12,27,01,55,972.74
2022,12,27,01,56,972.64
2022,12,27,01,57,972.57
2022,12,27,01,58,972.54
2022,12,27,01,59,972.50
2022,12,27,02,00,972.47
2022,12,27,02,01,972.47
2022,12,27,02,02,972.44
2022,12,27,02,03,972.33
2022,12,27,02,04,972.33
2022,12,27,02,05,972.33
2022,12,27,02,06,972.30
2022,12,27,02,07,972.23
2022,12,27,02,08,972.16
2022,12,27,02,09,972.13
2022,12,27,02,10,972.10
2022,12,27,02,11,972.06
2022,12,27,02,12,972.00
2022,12,27,02,13,971.96
2022,12,27,02,14,971.96
2022,12,27,02,15,972.03
2022,12,27,02,16,972.10
2022,12,27,02,17,972.10
2022,12,27,02,18,972.06
2022,12,27,02,19,972.03
2022,12,27,02,20,972.03
2022,12,27,02,21,972.00
2022,12,27,02,22,972.03
2022,12,27,02,23,972.03
2022,12,27,02,24,972.03
2022,12,27,02,25,972.00
2022,12,27,02,26,971.93
2022,12,27,02,27,971.93
2022,12,27,02,28,971.93
2022,12,27,02,29,972.00
2022,12,27,02,30,972.00
2022,12,27,02,31,972.06
2022,12,27,02,32,972.03
2022,12,27,02,33,972.03
2022,12,27,02,34,971.96
2022,12,27,02,35,971.96
2022,12,27,02,36,971.96
2022,12,27,02,37,971.89
2022,12,27,02,38,971.93
2022,12,27,02,39,972.00
2022,12,27,02,40,972.06
2022,12,27,02,41,972.06
2022,12,27,02,42,972.00
2022,12,27,02,43,971.99
2022,12,27,02,44,971.89
2022,12,27,02,45,971.83
2022,12,27,02,46,971.72
2022,12,27,02,47,971.69
2022,12,27,02,48,971.72
2022,12,27,02,49,971.66
2022,12,27,02,50,971.56
2022,12,27,02,51,971.52
2022,12,27,02,52,971.42
2022,12,27,02,53,971.39
2022,12,27,02,54,971.39
2022,12,27,02,55,971.28
2022,12,27,02,56,971.18
2022,12,27,02,57,971.18
2022,12,27,02,58,971.12
2022,12,27,02,59,971.08
2022,12,27,03,00,971.12
2022,12,27,03,01,971.12
2022,12,27,03,02,971.08
2022,12,27,03,03,971.01
2022,12,27,03,04,971.01
2022,12,27,03,05,970.98
2022,12,27,03,06,971.01
2022,12,27,03,07,970.98
2022,12,27,03,08,970.95
2022,12,27,03,09,971.05
2022,12,27,03,10,971.08
2022,12,27,03,11,970.98
2022,12,27,03,12,970.95
2022,12,27,03,13,970.91
2022,12,27,03,14,970.81
2022,12,27,03,15,970.78
2022,12,27,03,16,970.78
2022,12,27,03,17,970.78
2022,12,27,03,18,970.74
2022,12,27,03,19,970.74
2022,12,27,03,20,970.78
2022,12,27,03,21,970.74
2022,12,27,03,22,970.74
2022,12,27,03,23,970.71
2022,12,27,03,24,970.64
2022,12,27,03,25,970.64
2022,12,27,03,26,970.57
2022,12,27,03,27,970.44
2022,12,27,03,28,970.44
2022,12,27,03,29,970.40
2022,12,27,03,30,970.37
2022,12,27,03,31,970.30
2022,12,27,03,32,970.30
2022,12,27,03,33,970.34
2022,12,27,03,34,970.30
2022,12,27,03,35,970.27
2022,12,27,03,36,970.20
2022,12,27,03,37,970.20
2022,12,27,03,38,970.23
2022,12,27,03,39,970.34
2022,12,27,03,40,970.30
2022,12,27,03,41,970.34
2022,12,27,03,42,970.30
2022,12,27,03,43,970.30
2022,12,27,03,44,970.30
2022,12,27,03,45,970.23
2022,12,27,03,46,970.20
2022,12,27,03,47,970.20
2022,12,27,03,48,970.27
2022,12,27,03,49,970.27
2022,12,27,03,50,970.27
2022,12,27,03,51,970.27
2022,12,27,03,52,970.30
2022,12,27,03,53,970.34
2022,12,27,03,54,970.34
2022,12,27,03,55,970.37
2022,12,27,03,56,970.30
2022,12,27,03,57,970.23
2022,12,27,03,58,970.23
2022,12,27,03,59,970.13
2022,12,27,04,00,970.13
2022,12,27,04,01,970.10
2022,12,27,04,02,970.07
2022,12,27,04,03,970.03
2022,12,27,04,04,970.00
2022,12,27,04,05,970.00
2022,12,27,04,06,970.03
2022,12,27,04,07,969.96
2022,12,27,04,08,969.96
2022,12,27,04,09,970.00
2022,12,27,04,10,970.03
2022,12,27,04,11,969.96
2022,12,27,04,12,969.93
2022,12,27,04,13,969.93
2022,12,27,04,14,969.86
2022,12,27,04,15,969.86
2022,12,27,04,16,969.83
2022,12,27,04,17,969.76
2022,12,27,04,18,969.69
2022,12,27,04,19,969.66
2022,12,27,04,20,969.56
2022,12,27,04,21,969.52
2022,12,27,04,22,969.49
2022,12,27,04,23,969.49
2022,12,27,04,24,969.46
2022,12,27,04,25,969.39
2022,12,27,04,26,969.39
2022,12,27,04,27,969.32
2022,12,27,04,28,969.32
2022,12,27,04,29,969.32
2022,12,27,04,30,969.34
2022,12,27,04,31,969.25
2022,12,27,04,32,969.22
2022,12,27,04,33,969.15
2022,12,27,04,34,969.18
2022,12,27,04,35,969.18
2022,12,27,04,36,969.22
2022,12,27,04,37,969.15
2022,12,27,04,38,969.15
2022,12,27,04,39,969.18
2022,12,27,04,40,969.15
2022,12,27,04,41,969.15
2022,12,27,04,42,969.15
2022,12,27,04,43,969.12
2022,12,27,04,44,969.08
2022,12,27,04,45,969.02
2022,12,27,04,46,969.02
2022,12,27,04,47,968.98
2022,12,27,04,48,968.97
2022,12,27,04,49,968.88
2022,12,27,04,50,968.85
2022,12,27,04,51,968.81
2022,12,27,04,52,968.74
2022,12,27,04,53,968.71
2022,12,27,04,54,968.78
2022,12,27,04,55,968.81
2022,12,27,04,56,968.85
2022,12,27,04,57,968.88
2022,12,27,04,58,968.95
2022,12,27,04,59,969.02
2022,12,27,05,00,969.02
2022,12,27,05,01,969.02
2022,12,27,05,02,968.98
2022,12,27,05,03,968.95
2022,12,27,05,04,968.95
2022,12,27,05,05,968.88
2022,12,27,05,06,968.85
2022,12,27,05,07,968.81
2022,12,27,05,08,968.74
2022,12,27,05,09,968.68
2022,12,27,05,10,968.64
2022,12,27,05,11,968.64
2022,12,27,05,12,968.58
2022,12,27,05,13,968.58
2022,12,27,05,14,968.51
2022,12,27,05,15,968.58
2022,12,27,05,16,968.54
2022,12,27,05,17,968.58
2022,12,27,05,18,968.58
2022,12,27,05,19,968.68
2022,12,27,05,20,968.74
2022,12,27,05,21,968.74
2022,12,27,05,22,968.71
2022,12,27,05,23,968.68
2022,12,27,05,24,968.61
2022,12,27,05,25,968.58
2022,12,27,05,26,968.51
2022,12,27,05,27,968.51
2022,12,27,05,28,968.41
2022,12,27,05,29,968.37
2022,12,27,05,30,968.34
2022,12,27,05,31,968.41
2022,12,27,05,32,968.30
2022,12,27,05,33,968.27
2022,12,27,05,34,968.17
2022,12,27,05,35,968.14
2022,12,27,05,36,968.10
2022,12,27,05,37,968.10
2022,12,27,05,38,968.03
2022,12,27,05,39,968.00
2022,12,27,05,40,967.93
2022,12,27,05,41,967.76
2022,12,27,05,42,967.69
2022,12,27,05,43,967.69
2022,12,27,05,44,967.73
2022,12,27,05,45,967.66
2022,12,27,05,46,967.59
2022,12,27,05,47,967.56
2022,12,27,05,48,967.49
2022,12,27,05,49,967.49
2022,12,27,05,50,967.54
2022,12,27,05,51,967.66
2022,12,27,05,52,967.80
2022,12,27,05,53,967.90
2022,12,27,05,54,967.93
2022,12,27,05,55,967.93
2022,12,27,05,56,968.00
2022,12,27,05,57,968.07
2022,12,27,05,58,968.10
2022,12,27,05,59,968.03
2022,12,27,06,00,968.00
2022,12,27,06,01,968.03
2022,12,27,06,02,968.10
2022,12,27,06,03,968.14
2022,12,27,06,04,968.07
2022,12,27,06,05,968.07
2022,12,27,06,06,968.03
2022,12,27,06,07,968.00
2022,12,27,06,08,967.97
2022,12,27,06,09,967.90
2022,12,27,06,10,967.90
2022,12,27,06,11,967.93
2022,12,27,06,12,967.83
2022,12,27,06,13,967.73
2022,12,27,06,14,967.63
2022,12,27,06,15,967.63
2022,12,27,06,16,967.63
2022,12,27,06,17,967.63
2022,12,27,06,18,967.64
2022,12,27,06,19,967.73
2022,12,27,06,20,967.83
2022,12,27,06,21,967.86
2022,12,27,06,22,967.93
2022,12,27,06,23,967.97
2022,12,27,06,24,967.90
2022,12,27,06,25,967.90
2022,12,27,06,26,967.90
2022,12,27,06,27,967.97
2022,12,27,06,28,967.93
2022,12,27,06,29,967.97
2022,12,27,06,30,967.90
2022,12,27,06,31,967.93
2022,12,27,06,32,967.86
2022,12,27,06,33,967.80
2022,12,27,06,34,967.86
2022,12,27,06,35,967.86
2022,12,27,06,36,967.80
2022,12,27,06,37,967.80
2022,12,27,06,38,967.76
2022,12,27,06,39,967.73
2022,12,27,06,40,967.76
2022,12,27,06,41,967.76
2022,12,27,06,42,967.80
2022,12,27,06,43,967.76
2022,12,27,06,44,967.80
2022,12,27,06,45,967.76
2022,12,27,06,46,967.73
2022,12,27,06,47,967.76
2022,12,27,06,48,967.80
2022,12,27,06,49,967.80
2022,12,27,06,50,967.83
2022,12,27,06,51,967.83
2022,12,27,06,52,967.86
2022,12,27,06,53,967.93
2022,12,27,06,54,967.97
2022,12,27,06,55,967.97
2022,12,27,06,56,967.97
2022,12,27,06,57,968.00
2022,12,27,06,58,967.97
2022,12,27,06,59,968.00
2022,12,27,07,00,967.97
2022,12,27,07,01,968.00
2022,12,27,07,02,967.93
2022,12,27,07,03,968.00
2022,12,27,07,04,968.00
2022,12,27,07,05,967.97
2022,12,27,07,06,967.93
2022,12,27,07,07,967.93
2022,12,27,07,08,967.97
2022,12,27,07,09,967.93
2022,12,27,07,10,967.90
2022,12,27,07,11,967.90
2022,12,27,07,12,967.86
2022,12,27,07,13,967.90
2022,12,27,07,14,967.90
2022,12,27,07,15,967.90
2022,12,27,07,16,967.86
2022,12,27,07,17,967.83
2022,12,27,07,18,967.73
2022,12,27,07,19,967.76
2022,12,27,07,20,967.73
2022,12,27,07,21,967.80
2022,12,27,07,22,967.76
2022,12,27,07,23,967.69
2022,12,27,07,24,967.69
2022,12,27,07,25,967.66
2022,12,27,07,26,967.63
2022,12,27,07,27,967.63
2022,12,27,07,28,967.59
2022,12,27,07,29,967.59
2022,12,27,07,30,967.56
2022,12,27,07,31,967.56
2022,12,27,07,32,967.53
2022,12,27,07,33,967.56
2022,12,27,07,34,967.63
2022,12,27,07,35,967.56
2022,12,27,07,36,967.59
2022,12,27,07,37,967.59
2022,12,27,07,38,967.59
2022,12,27,07,39,967.56
2022,12,27,07,40,967.59
2022,12,27,07,41,967.56
2022,12,27,07,42,967.49
2022,12,27,07,43,967.42
2022,12,27,07,44,967.39
2022,12,27,07,45,967.39
2022,12,27,07,46,967.42
2022,12,27,07,47,967.39
2022,12,27,07,48,967.36
2022,12,27,07,49,967.36
2022,12,27,07,50,967.39
2022,12,27,07,51,967.42
2022,12,27,07,52,967.46
2022,12,27,07,53,967.42
2022,12,27,07,54,967.39
2022,12,27,07,55,967.36
2022,12,27,07,56,967.36
2022,12,27,07,57,967.36
2022,12,27,07,58,967.32
2022,12,27,07,59,967.29
2022,12,27,08,00,967.32
2022,12,27,08,01,967.39
2022,12,27,08,02,967.39
2022,12,27,08,03,967.36
2022,12,27,08,04,967.36
2022,12,27,08,05,967.39
2022,12,27,08,06,967.42
2022,12,27,08,07,967.42
2022,12,27,08,08,967.39
2022,12,27,08,09,967.42
2022,12,27,08,10,967.42
2022,12,27,08,11,967.42
2022,12,27,08,12,967.42
2022,12,27,08,13,967.46
2022,12,27,08,14,967.49
2022,12,27,08,15,967.56
2022,12,27,08,16,967.56
2022,12,27,08,17,967.59
2022,12,27,08,18,967.59
2022,12,27,08,19,967.63
2022,12,27,08,20,967.59
2022,12,27,08,21,967.63
2022,12,27,08,22,967.66
2022,12,27,08,23,967.66
2022,12,27,08,24,967.66
2022,12,27,08,25,967.66
2022,12,27,08,26,967.66
2022,12,27,08,27,967.63
2022,12,27,08,28,967.66
2022,12,27,08,29,967.66
2022,12,27,08,30,967.66
2022,12,27,08,31,967.66
2022,12,27,08,32,967.66
2022,12,27,08,33,967.69
2022,12,27,08,34,967.69
2022,12,27,08,35,967.73
2022,12,27,08,36,967.73
2022,12,27,08,37,967.80
2022,12,27,08,38,967.86
2022,12,27,08,39,967.91
2022,12,27,08,40,968.00
2022,12,27,08,41,968.14
2022,12,27,08,42,968.20
2022,12,27,08,43,968.27
2022,12,27,08,44,968.30
2022,12,27,08,45,968.30
2022,12,27,08,46,968.30
2022,12,27,08,47,968.27
2022,12,27,08,48,968.24
2022,12,27,08,49,968.27
2022,12,27,08,50,968.27
2022,12,27,08,51,968.27
2022,12,27,08,52,968.30
2022,12,27,08,53,968.24
2022,12,27,08,54,968.20
2022,12,27,08,55,968.27
2022,12,27,08,56,968.34
2022,12,27,08,57,968.37
2022,12,27,08,58,968.41
2022,12,27,08,59,968.41
2022,12,27,09,00,968.47
2022,12,27,09,01,968.51
2022,12,27,09,02,968.54
2022,12,27,09,03,968.58
2022,12,27,09,04,968.58
2022,12,27,09,05,968.58
2022,12,27,09,06,968.64
2022,12,27,09,07,968.64
2022,12,27,09,08,968.68
2022,12,27,09,09,968.74
2022,12,27,09,10,968.71
2022,12,27,09,11,968.71
2022,12,27,09,12,968.78
2022,12,27,09,13,968.81
2022,12,27,09,14,968.81
2022,12,27,09,15,968.78
2022,12,27,09,16,968.68
2022,12,27,09,17,968.71
2022,12,27,09,18,968.78
2022,12,27,09,19,968.78
2022,12,27,09,20,968.81
2022,12,27,09,21,968.91
2022,12,27,09,22,968.88
2022,12,27,09,23,968.85
2022,12,27,09,24,968.85
2022,12,27,09,25,968.91
2022,12,27,09,26,968.95
2022,12,27,09,27,968.95
2022,12,27,09,28,968.98
2022,12,27,09,29,969.02
2022,12,27,09,30,968.98
2022,12,27,09,31,968.95
2022,12,27,09,32,968.98
2022,12,27,09,33,968.98
2022,12,27,09,34,969.02
2022,12,27,09,35,968.98
2022,12,27,09,36,969.02
2022,12,27,09,37,969.02
2022,12,27,09,38,968.98
2022,12,27,09,39,968.95
2022,12,27,09,40,968.98
2022,12,27,09,41,969.02
2022,12,27,09,42,969.05
2022,12,27,09,43,969.05
2022,12,27,09,44,969.02
2022,12,27,09,45,968.98
2022,12,27,09,46,969.05
2022,12,27,09,47,969.08
2022,12,27,09,48,969.08
2022,12,27,09,49,969.08
2022,12,27,09,50,969.08
2022,12,27,09,51,969.12
2022,12,27,09,52,969.18
2022,12,27,09,53,969.18
2022,12,27,09,54,969.22
2022,12,27,09,55,969.18
2022,12,27,09,56,969.22
2022,12,27,09,57,969.25
2022,12,27,09,58,969.29
2022,12,27,09,59,969.32
2022,12,27,10,00,969.32
2022,12,27,10,01,969.35
2022,12,27,10,02,969.39
2022,12,27,10,03,969.39
2022,12,27,10,04,969.42
2022,12,27,10,05,969.42
2022,12,27,10,06,969.42
2022,12,27,10,07,969.42
2022,12,27,10,08,969.46
2022,12,27,10,09,969.42
2022,12,27,10,10,969.46
2022,12,27,10,11,969.42
2022,12,27,10,12,969.49
2022,12,27,10,13,969.47
2022,12,27,10,14,969.56
2022,12,27,10,15,969.52
2022,12,27,10,16,969.56
2022,12,27,10,17,969.56
2022,12,27,10,18,969.56
2022,12,27,10,19,969.56
2022,12,27,10,20,969.59
2022,12,27,10,21,969.66
2022,12,27,10,22,969.66
2022,12,27,10,23,969.69
2022,12,27,10,24,969.73
2022,12,27,10,25,969.73
2022,12,27,10,26,969.79
2022,12,27,10,27,969.79
2022,12,27,10,28,969.76
2022,12,27,10,29,969.83
2022,12,27,10,30,969.79
2022,12,27,10,31,969.83
2022,12,27,10,32,969.83
2022,12,27,10,33,969.83
2022,12,27,10,34,969.86
2022,12,27,10,35,969.83
2022,12,27,10,36,969.86
2022,12,27,10,37,969.86
2022,12,27,10,38,969.86
2022,12,27,10,39,969.90
2022,12,27,10,40,969.86
2022,12,27,10,41,969.93
2022,12,27,10,42,969.90
2022,12,27,10,43,969.96
2022,12,27,10,44,970.03
2022,12,27,10,45,970.07
2022,12,27,10,46,969.96
2022,12,27,10,47,969.96
2022,12,27,10,48,969.90
2022,12,27,10,49,969.93
2022,12,27,10,50,970.00
2022,12,27,10,51,969.99
2022,12,27,10,52,969.90
2022,12,27,10,53,969.93
2022,12,27,10,54,969.96
2022,12,27,10,55,970.00
2022,12,27,10,56,970.00
2022,12,27,10,57,970.03
2022,12,27,10,58,970.00
2022,12,27,10,59,970.00
2022,12,27,11,00,969.96
2022,12,27,11,01,970.00
2022,12,27,11,02,969.96
2022,12,27,11,03,970.00
2022,12,27,11,04,970.03
2022,12,27,11,05,970.03
2022,12,27,11,06,970.07
2022,12,27,11,07,970.07
2022,12,27,11,08,970.07
2022,12,27,11,09,970.13
2022,12,27,11,10,970.10
2022,12,27,11,11,970.20
2022,12,27,11,12,970.13
2022,12,27,11,13,970.17
2022,12,27,11,14,970.17
2022,12,27,11,15,970.17
2022,12,27,11,16,970.17
2022,12,27,11,17,970.20
2022,12,27,11,18,970.20
2022,12,27,11,19,970.20
2022,12,27,11,20,970.20
2022,12,27,11,21,970.20
2022,12,27,11,22,970.20
2022,12,27,11,23,970.27
2022,12,27,11,24,970.27
2022,12,27,11,25,970.23
2022,12,27,11,26,970.30
2022,12,27,11,27,970.27
2022,12,27,11,28,970.23
2022,12,27,11,29,970.20
2022,12,27,11,30,970.23
2022,12,27,11,31,970.27
2022,12,27,11,32,970.30
2022,12,27,11,33,970.27
2022,12,27,11,34,970.30
2022,12,27,11,35,970.34
2022,12,27,11,36,970.37
2022,12,27,11,37,970.37
2022,12,27,11,38,970.37
2022,12,27,11,39,970.44
2022,12,27,11,40,970.44
2022,12,27,11,41,970.44
2022,12,27,11,42,970.44
2022,12,27,11,43,970.47
2022,12,27,11,44,970.51
2022,12,27,11,45,970.51
2022,12,27,11,46,970.51
2022,12,27,11,47,970.54
2022,12,27,11,48,970.54
2022,12,27,11,49,970.47
2022,12,27,11,50,970.51
2022,12,27,11,51,970.51
2022,12,27,11,52,970.51
2022,12,27,11,53,970.54
2022,12,27,11,54,970.51
2022,12,27,11,55,970.54
2022,12,27,11,56,970.57
2022,12,27,11,57,970.54
2022,12,27,11,58,970.61
2022,12,27,11,59,970.54
2022,12,27,12,00,970.51
2022,12,27,12,01,970.54
2022,12,27,12,02,970.54
2022,12,27,12,03,970.54
2022,12,27,12,04,970.57
2022,12,27,12,05,970.64
2022,12,27,12,06,970.64
2022,12,27,12,07,970.71
2022,12,27,12,08,970.74
2022,12,27,12,09,970.78
2022,12,27,12,10,970.74
2022,12,27,12,11,970.78
2022,12,27,12,12,970.84
2022,12,27,12,13,970.88
2022,12,27,12,14,970.95
2022,12,27,12,15,970.98
2022,12,27,12,16,970.98
2022,12,27,12,17,971.01
2022,12,27,12,18,971.01
2022,12,27,12,19,971.01
2022,12,27,12,20,971.01
2022,12,27,12,21,971.05
2022,12,27,12,22,971.08
2022,12,27,12,23,971.12
2022,12,27,12,24,971.12
2022,12,27,12,25,971.05
2022,12,27,12,26,971.01
2022,12,27,12,27,971.05
2022,12,27,12,28,971.08
2022,12,27,12,29,971.12
2022,12,27,12,30,971.12
2022,12,27,12,31,971.15
2022,12,27,12,32,971.15
2022,12,27,12,33,971.15
2022,12,27,12,34,971.15
2022,12,27,12,35,971.18
2022,12,27,12,36,971.22
2022,12,27,12,37,971.25
2022,12,27,12,38,971.28
2022,12,27,12,39,971.28
2022,12,27,12,40,971.28
2022,12,27,12,41,971.32
2022,12,27,12,42,971.32
2022,12,27,12,43,971.32
2022,12,27,12,44,971.32
2022,12,27,12,45,971.35
2022,12,27,12,46,971.35
2022,12,27,12,47,971.35
2022,12,27,12,48,971.42
2022,12,27,12,49,971.39
2022,12,27,12,50,971.42
2022,12,27,12,51,971.42
2022,12,27,12,52,971.49
2022,12,27,12,53,971.49
2022,12,27,12,54,971.45
2022,12,27,12,55,971.49
2022,12,27,12,56,971.56
2022,12,27,12,57,971.49
2022,12,27,12,58,971.52
2022,12,27,12,59,971.49
2022,12,27,13,00,971.56
2022,12,27,13,01,971.56
2022,12,27,13,02,971.59
2022,12,27,13,03,971.62
2022,12,27,13,04,971.66
2022,12,27,13,05,971.66
2022,12,27,13,06,971.69
2022,12,27,13,07,971.66
2022,12,27,13,08,971.69
2022,12,27,13,09,971.69
2022,12,27,13,10,971.69
2022,12,27,13,11,971.69
2022,12,27,13,12,971.72
2022,12,27,13,13,971.72
2022,12,27,13,14,971.72
2022,12,27,13,15,971.72
2022,12,27,13,16,971.83
2022,12,27,13,17,971.79
2022,12,27,13,18,971.76
2022,12,27,13,19,971.79
2022,12,27,13,20,971.83
2022,12,27,13,21,971.83
2022,12,27,13,22,971.83
2022,12,27,13,23,971.89
2022,12,27,13,24,971.93
2022,12,27,13,25,971.89
2022,12,27,13,26,971.93
2022,12,27,13,27,971.96
2022,12,27,13,28,972.00
2022,12,27,13,29,972.06
2022,12,27,13,30,972.06
2022,12,27,13,31,972.06
2022,12,27,13,32,972.06
2022,12,27,13,33,972.13
2022,12,27,13,34,972.13
2022,12,27,13,35,972.16
2022,12,27,13,36,972.20
2022,12,27,13,37,972.20
2022,12,27,13,38,972.20
2022,12,27,13,39,972.20
2022,12,27,13,40,972.23
2022,12,27,13,41,972.30
2022,12,27,13,42,972.27
2022,12,27,13,43,972.30
2022,12,27,13,44,972.33
2022,12,27,13,45,972.33
2022,12,27,13,46,972.33
2022,12,27,13,47,972.44
2022,12,27,13,48,972.40
2022,12,27,13,49,972.40
2022,12,27,13,50,972.44
2022,12,27,13,51,972.54
2022,12,27,13,52,972.54
2022,12,27,13,53,972.54
2022,12,27,13,54,972.61
2022,12,27,13,55,972.67
2022,12,27,13,56,972.67
2022,12,27,13,57,972.71
2022,12,27,13,58,972.74
2022,12,27,13,59,972.74
2022,12,27,14,00,972.77
2022,12,27,14,01,972.77
2022,12,27,14,02,972.81
2022,12,27,14,03,972.84
2022,12,27,14,04,972.88
2022,12,27,14,05,972.94
2022,12,27,14,06,972.94
2022,12,27,14,07,972.98
2022,12,27,14,08,973.05
2022,12,27,14,09,973.05
2022,12,27,14,10,973.08
2022,12,27,14,11,973.11
2022,12,27,14,12,973.15
2022,12,27,14,13,973.21
2022,12,27,14,14,973.25
2022,12,27,14,15,973.32
2022,12,27,14,16,973.32
2022,12,27,14,17,973.38
2022,12,27,14,18,973.42
2022,12,27,14,19,973.45
2022,12,27,14,20,973.49
2022,12,27,14,21,973.55
2022,12,27,14,22,973.59
2022,12,27,14,23,973.55
2022,12,27,14,24,973.59
2022,12,27,14,25,973.65
2022,12,27,14,26,973.69
2022,12,27,14,27,973.76
2022,12,27,14,28,973.79
2022,12,27,14,29,973.82
2022,12,27,14,30,973.82
2022,12,27,14,31,973.89
2022,12,27,14,32,973.89
2022,12,27,14,33,973.93
2022,12,27,14,34,974.03
2022,12,27,14,35,974.03
2022,12,27,14,36,974.10
2022,12,27,14,37,974.10
2022,12,27,14,38,974.13
2022,12,27,14,39,974.13
2022,12,27,14,40,974.20
2022,12,27,14,41,974.20
2022,12,27,14,42,974.23
2022,12,27,14,43,974.20
2022,12,27,14,44,974.23
2022,12,27,14,45,974.26
2022,12,27,14,46,974.37
2022,12,27,14,47,974.33
2022,12,27,14,48,974.40
2022,12,27,14,49,974.43
2022,12,27,14,50,974.47
2022,12,27,14,51,974.47
2022,12,27,14,52,974.50
2022,12,27,14,53,974.50
2022,12,27,14,54,974.54
2022,12,27,14,55,974.50
2022,12,27,14,56,974.57
2022,12,27,14,57,974.60
2022,12,27,14,58,974.57
2022,12,27,14,59,974.57
2022,12,27,15,00,974.54
2022,12,27,15,01,974.57
2022,12,27,15,02,974.67
2022,12,27,15,03,974.67
2022,12,27,15,04,974.67
2022,12,27,15,05,974.77
2022,12,27,15,06,974.77
2022,12,27,15,07,974.77
2022,12,27,15,08,974.84
2022,12,27,15,09,974.84
2022,12,27,15,10,974.87
2022,12,27,15,11,974.87
2022,12,27,15,12,974.87
2022,12,27,15,13,974.94
2022,12,27,15,14,975.04
2022,12,27,15,15,975.08
2022,12,27,15,16,975.08
2022,12,27,15,17,975.14
2022,12,27,15,18,975.14
2022,12,27,15,19,975.18
2022,12,27,15,20,975.21
2022,12,27,15,21,975.28
2022,12,27,15,22,975.31
2022,12,27,15,23,975.31
2022,12,27,15,24,975.38
2022,12,27,15,25,975.35
2022,12,27,15,26,975.42
2022,12,27,15,27,975.45
2022,12,27,15,28,975.48
2022,12,27,15,29,975.52
2022,12,27,15,30,975.55
2022,12,27,15,31,975.62
2022,12,27,15,32,975.65
2022,12,27,15,33,975.69
2022,12,27,15,34,975.72
2022,12,27,15,35,975.79
2022,12,27,15,36,975.79
2022,12,27,15,37,975.82
2022,12,27,15,38,975.89
2022,12,27,15,39,975.92
2022,12,27,15,40,975.92
2022,12,27,15,41,975.96
2022,12,27,15,42,975.96
2022,12,27,15,43,976.03
2022,12,27,15,44,976.06
2022,12,27,15,45,976.09
2022,12,27,15,46,976.06
2022,12,27,15,47,976.13
2022,12,27,15,48,976.13
2022,12,27,15,49,976.19
2022,12,27,15,50,976.33
2022,12,27,15,51,976.36
2022,12,27,15,52,976.36
2022,12,27,15,53,976.33
2022,12,27,15,54,976.36
2022,12,27,15,55,976.43
2022,12,27,15,56,976.47
2022,12,27,15,57,976.53
2022,12,27,15,58,976.63
2022,12,27,15,59,976.67
2022,12,27,16,00,976.67
2022,12,27,16,01,976.74
2022,12,27,16,02,976.74
2022,12,27,16,03,976.74
2022,12,27,16,04,976.74
2022,12,27,16,05,976.84
2022,12,27,16,06,976.80
2022,12,27,16,07,976.84
2022,12,27,16,08,976.84
2022,12,27,16,09,976.91
2022,12,27,16,10,976.94
2022,12,27,16,11,976.94
2022,12,27,16,12,977.01
2022,12,27,16,13,977.04
2022,12,27,16,14,977.04
2022,12,27,16,15,977.04
2022,12,27,16,16,977.11
2022,12,27,16,17,977.08
2022,12,27,16,18,977.11
2022,12,27,16,19,977.21
2022,12,27,16,20,977.24
2022,12,27,16,21,977.28
2022,12,27,16,22,977.35
2022,12,27,16,23,977.28
2022,12,27,16,24,977.31
2022,12,27,16,25,977.35
2022,12,27,16,26,977.45
2022,12,27,16,27,977.41
2022,12,27,16,28,977.45
2022,12,27,16,29,977.38
2022,12,27,16,30,977.48
2022,12,27,16,31,977.45
2022,12,27,16,32,977.52
2022,12,27,16,33,977.45
2022,12,27,16,34,977.52
2022,12,27,16,35,977.55
2022,12,27,16,36,977.52